FW1302 Weather Reports


time (UTC)temp
C
wind
direction
speed
KPH
gust
KPH
rain 1hr
cm
rain 24hr
cm
rain mn
cm
humidity
%
barometer
mb
20260503032420 18 225 4.8 6.4 0.00 0.00 0.00 68 1022.7
20260503031517 19 248 6.4 6.4 0.00 0.00 0.00 69 1022.4
20260503025518 18 232 6.4 8.0 0.00 0.00 0.00 68 1022.4
20260503023518 19 225 6.4 8.0 0.00 0.00 0.00 68 1022.0
20260503022519 19 225 8.0 9.7 0.00 0.00 0.00 67 1021.9
20260503021418 19 225 6.4 8.0 0.00 0.00 0.00 66 1021.7
20260503020416 20 225 9.7 11.3 0.00 0.00 0.00 64 1021.7
20260503020317 20 225 8.0 11.3 0.00 0.00 0.00 65 1021.7
20260503015318 20 224 6.4 11.3 0.00 0.00 0.00 64 1021.6
20260503014318 20 220 9.7 16.1 0.00 0.00 0.00 64 1021.5
20260503012317 20 205 6.4 14.5 0.00 0.00 0.00 62 1021.4
20260503011317 20 228 6.4 11.3 0.00 0.00 0.00 63 1021.5
20260503010317 20 216 12.9 22.5 0.00 0.00 0.00 63 1021.6
20260503005318 20 215 12.9 19.3 0.00 0.00 0.00 62 1021.4
20260503005217 20 208 17.7 25.7 0.00 0.00 0.00 63 1021.5
20260503002218 20 225 12.9 17.7 0.00 0.00 0.00 63 1021.4
20260503001217 20 216 8.0 14.5 0.00 0.00 0.00 63 1021.4
20260503000318 20 225 11.3 14.5 0.00 0.00 0.00 61 1021.4
20260502235320 20 229 11.3 14.5 0.00 0.00 0.00 59 1021.4
20260502234319 21 225 12.9 14.5 0.00 0.00 0.00 58 1021.4
20260502233417 21 216 6.4 12.9 0.00 0.00 0.00 57 1021.5
20260502232417 21 225 8.0 9.7 0.00 0.00 0.00 58 1021.6
20260502230418 20 232 6.4 8.0 0.00 0.00 0.00 60 1022.2
20260502225517 20 205 6.4 11.3 0.00 0.00 0.00 61 1022.2
20260502223518 18 243 8.0 9.7 0.00 0.00 0.00 65 1022.6
20260502222617 18 227 6.4 8.0 0.00 0.00 0.00 66 1022.8
20260502220618 17 246 11.3 12.9 0.00 0.00 0.00 68 1023.3
20260502220517 17 242 9.7 11.3 0.00 0.00 0.00 67 1023.3
20260502215616 17 225 9.7 14.5 0.00 0.00 0.00 68 1023.5
20260502214618 17 215 11.3 17.7 0.00 0.00 0.00 69 1023.7
20260502213618 16 210 11.3 20.9 0.00 0.00 0.00 70 1023.8
20260502213519 16 224 14.5 20.9 0.00 0.00 0.00 69 1023.9
20260502211617 16 228 8.0 14.5 0.00 0.00 0.00 69 1024.1
20260502210618 17 224 17.7 22.5 0.00 0.00 0.00 69 1024.2
20260502205619 17 209 14.5 19.3 0.00 0.00 0.00 68 1024.1
20260502203716 16 242 8.0 14.5 0.00 0.00 0.00 69 1024.3
20260502202720 16 228 9.7 12.9 0.00 0.00 0.00 71 1024.4
20260502201719 16 225 8.0 12.9 0.00 0.00 0.00 71 1024.5
20260502200718 16 215 14.5 22.5 0.00 0.00 0.00 73 1024.4
20260502200619 16 210 17.7 24.1 0.00 0.00 0.00 72 1024.5
20260502195619 15 211 17.7 25.7 0.00 0.00 0.00 75 1024.7
20260502194717 15 229 9.7 17.7 0.00 0.00 0.00 76 1024.9
20260502193719 14 230 17.7 22.5 0.00 0.00 0.00 78 1024.7
20260502193616 13 232 16.1 19.3 0.00 0.00 0.00 78 1024.7
20260502192619 13 343 19.3 24.1 0.00 0.00 0.00 80 1024.0
20260502190619 13 45 14.5 19.3 0.00 0.00 0.00 77 1024.4
20260502185618 13 45 9.7 16.1 0.00 0.00 0.00 77 1025.1
20260502184618 13 315 0.0 0.0 0.00 0.00 0.00 77 1026.0
20260502183620 13 225 3.2 4.8 0.00 0.00 0.00 78 1026.3
20260502182617 13 210 1.6 6.4 0.00 0.00 0.00 79 1026.6
20260502181617 13 225 9.7 14.5 0.00 0.00 0.00 79 1026.5
20260502180717 13 204 3.2 14.5 0.00 0.00 0.00 79 1026.5
20260502163818 12 233 6.4 8.0 0.00 0.00 0.00 82 1026.7
20260502161820 11 225 6.4 6.4 0.00 0.00 0.00 84 1026.9
20260502160817 11 225 6.4 6.4 0.00 0.00 0.00 83 1026.8
20260502151917 11 211 8.0 16.1 0.00 0.00 0.00 85 1027.0
20260502150917 11 223 8.0 9.7 0.00 0.00 0.00 86 1026.9
20260502122817 11 220 12.9 17.7 0.00 0.00 0.00 85 1026.0
20260502121820 11 225 16.1 19.3 0.00 0.00 0.00 86 1025.9
20260502120916 11 232 12.9 22.5 0.00 0.00 0.00 86 1026.0
20260502115917 11 226 16.1 22.5 0.00 0.00 0.00 85 1025.8
20260502114019 11 225 12.9 17.7 0.00 0.00 0.00 85 1025.7
20260502113117 11 225 8.0 11.3 0.00 0.00 0.00 84 1025.8
20260502111118 11 225 0.0 1.6 0.00 0.00 0.00 84 1025.8
20260502110217 11 225 6.4 8.0 0.00 0.00 0.00 84 1026.1
20260502104316 11 223 9.7 12.9 0.00 0.00 0.00 83 1026.3
20260502103317 11 212 12.9 19.3 0.00 0.00 0.00 83 1026.4
20260502102318 11 218 11.3 17.7 0.00 0.00 0.00 82 1026.5
20260502101319 11 225 9.7 12.9 0.00 0.00 0.00 82 1026.4
20260502100317 12 221 6.4 9.7 0.00 0.00 0.00 82 1026.5
20260502091418 12 229 12.9 20.9 0.00 0.00 0.00 80 1027.4
20260502090418 12 226 19.3 25.7 0.00 0.00 0.00 81 1027.4
20260502071417 13 211 19.3 27.4 0.00 0.00 0.00 76 1026.6
20260502070418 13 219 16.1 24.1 0.00 0.00 0.00 75 1026.8
20260502064524 13 223 19.3 29.0 0.00 0.00 0.00 76 1026.1
20260502063525 14 211 16.1 20.9 0.00 0.00 0.00 73 1026.1
20260502062525 14 225 14.5 22.5 0.00 0.00 0.00 72 1026.3
20260502061526 15 212 16.1 24.1 0.00 0.00 0.00 71 1026.3
20260502055527 15 217 19.3 35.4 0.00 0.00 0.00 69 1026.1
20260502053524 16 210 22.5 37.0 0.00 0.00 0.00 68 1026.0
20260502051524 16 224 16.1 24.1 0.00 0.00 0.00 65 1025.9
20260502051425 16 220 11.3 17.7 0.00 0.00 0.00 64 1026.0
20260502050426 17 224 22.5 29.0 0.00 0.00 0.00 62 1025.6
20260502050327 17 222 19.3 29.0 0.00 0.00 0.00 62 1025.6
20260502044326 17 227 12.9 16.1 0.00 0.00 0.00 60 1025.2
20260502043326 18 225 16.1 20.9 0.00 0.00 0.00 57 1025.1
20260502042327 18 223 11.3 17.7 0.00 0.00 0.00 55 1024.8
20260502041425 19 223 12.9 17.7 0.00 0.00 0.00 53 1024.9
20260502040426 19 224 14.5 22.5 0.00 0.00 0.00 54 1024.9
20260502034425 19 213 6.4 11.3 0.00 0.00 0.00 55 1024.7